RH
22 20 19 19 20 20 22 27 33 38 35 37 42 44 46 47 51 50 49 50 50 53 54 54 55 57 58 60 63 68 70 71 75 73 77 84 85 85 82 80 78 77 76 78 87 91 88 91 98 96 91 89 89 89 88 90 90 89 87 86 86 84 83 81 79 78 77 75 74 73 70 67 65 63 60 59 57 56 55 53 50 49 47 46 46 45 44 44 45 45 44 44 45 45 44 44 45
22 21 19 19 20 21 25 27 33 39 38 41 46 47 48 49 53 53 52 52 53 55 56 56 56 60 62 64 65 67 72 74 75 76 83 86 86 87 84 81 80 79 79 82 88 90 90 95 97 92 91 90 89 89 88 89 89 87 86 85 84 84 83 82 81 81 80 79 78 76 73 69 66 63 61 59 57 55 53 52 50 48 48 47 47 47 46 46 48 48 48 47 47 45 45 45 45
23 23 22 21 21 22 25 27 32 38 41 45 48 48 50 53 56 56 55 55 56 56 56 56 58 62 63 64 66 68 73 74 75 78 84 88 89 90 86 82 82 82 82 83 87 89 92 95 95 92 91 91 90 89 89 91 90 88 87 86 86 86 85 85 85 85 83 82 80 77 74 71 68 64 62 59 56 55 52 52 53 52 52 51 50 49 48 49 49 50 49 48 47 45 45 45 44
26 26 23 23 22 23 27 30 32 38 44 47 53 53 52 56 58 60 61 58 58 59 57 57 61 65 66 69 70 70 74 76 77 78 83 88 89 90 86 83 84 84 85 85 84 86 91 93 93 94 92 92 92 91 89 90 90 89 88 88 88 87 87 87 87 85 84 82 80 78 75 73 70 66 64 61 57 55 53 53 55 53 54 53 52 50 49 50 50 49 48 47 46 44 43 43 42
30 29 26 24 26 28 31 35 35 38 44 47 60 62 56 56 54 61 65 63 60 62 63 63 66 67 71 77 76 74 76 79 80 80 84 87 87 87 85 86 86 85 87 89 87 85 88 91 90 92 93 93 93 91 88 88 88 88 88 88 88 88 88 87 87 85 83 81 79 76 74 72 69 66 64 62 60 58 56 55 55 54 54 53 52 51 50 50 51 50 48 48 47 45 43 42 41
34 33 29 27 31 33 33 35 32 33 40 48 60 65 64 61 56 62 67 68 66 67 67 67 69 70 74 79 80 81 81 81 83 84 85 85 85 85 85 87 86 87 91 91 90 88 87 88 87 88 91 92 91 90 89 89 89 89 88 87 85 85 85 85 85 84 82 80 77 74 72 71 68 66 63 62 62 60 59 57 57 57 56 56 55 55 53 52 53 52 51 50 50 48 46 43 41
37 36 32 30 34 35 37 37 31 31 40 47 55 60 66 69 67 65 66 70 70 71 73 70 69 70 76 80 79 82 84 84 85 86 86 85 84 83 84 85 85 90 93 92 91 90 91 89 86 86 87 90 89 89 88 87 87 87 86 84 83 82 82 82 81 80 77 75 72 69 68 67 65 63 60 58 58 58 58 58 59 58 58 58 57 57 55 54 54 54 54 53 52 50 48 44 41
38 39 36 36 37 39 45 44 37 39 45 46 50 56 62 70 76 74 69 70 69 70 76 76 71 69 76 81 83 84 85 86 87 86 86 85 84 83 83 83 84 89 90 93 95 92 93 91 88 85 85 87 87 87 86 84 84 83 81 78 77 76 76 75 76 75 72 70 67 65 64 63 62 60 59 58 59 60 61 60 60 60 60 59 58 58 56 55 54 54 55 53 52 51 48 44 41
40 42 42 42 42 44 50 51 47 44 44 45 48 54 60 65 74 80 78 75 73 68 70 75 75 77 79 82 87 89 88 88 88 86 86 85 84 83 82 81 84 90 92 93 95 94 95 94 91 88 86 87 87 86 84 82 81 79 77 74 72 71 72 73 73 73 73 73 71 68 65 64 63 62 62 64 65 65 65 65 64 64 63 62 61 60 59 57 57 56 57 56 55 54 51 49 46
44 46 46 45 46 50 54 55 53 48 43 44 47 51 58 63 66 75 81 81 81 74 69 69 72 80 83 83 87 89 90 89 87 87 87 86 84 83 82 83 85 92 96 97 97 96 96 94 92 91 89 89 88 85 84 82 82 80 79 78 77 75 77 77 76 74 74 76 76 72 68 68 68 67 67 69 69 68 67 67 66 65 63 62 63 63 62 61 61 60 60 59 58 56 55 53 50
45 50 50 48 49 52 56 57 56 55 50 46 48 50 55 59 60 67 76 82 86 82 75 69 67 74 80 84 88 88 89 90 90 89 88 86 84 85 86 88 88 90 94 97 99 97 96 94 92 91 90 89 88 86 86 85 85 85 84 84 83 81 82 82 79 77 76 77 75 72 71 71 72 72 71 71 70 68 67 66 65 63 61 61 61 62 62 61 60 59 57 56 55 54 53 53 52
46 50 50 52 52 52 55 61 59 54 52 50 53 55 55 56 58 61 68 79 88 88 80 71 67 70 74 82 87 88 88 89 90 89 87 86 82 85 90 92 92 90 91 95 97 97 96 94 91 89 88 88 87 86 86 86 86 86 86 85 85 84 84 84 83 81 80 79 77 76 77 77 77 74 71 68 66 64 63 62 60 59 58 57 57 58 58 57 56 54 52 50 48 46 44 44 45
50 51 54 55 54 54 55 61 59 54 56 57 59 63 63 60 63 62 64 74 83 90 87 76 68 67 73 79 82 85 85 86 88 87 87 87 83 83 88 90 92 92 93 94 94 95 96 93 91 89 87 87 86 85 84 85 85 85 85 84 84 84 84 84 83 82 80 77 74 76 77 76 74 70 67 66 64 63 62 59 56 54 54 54 54 54 53 53 52 51 48 46 42 39 36 34 33
55 56 59 59 55 56 56 60 59 58 62 60 59 65 68 65 66 65 64 68 75 87 88 79 68 65 73 77 78 79 79 81 84 85 86 87 85 84 87 89 89 90 92 93 93 92 92 91 89 86 85 84 84 84 84 84 83 84 84 84 84 83 82 81 79 77 74 71 69 69 70 69 66 65 65 64 62 62 60 56 55 53 53 52 52 51 50 49 47 46 43 40 37 34 31 29 28
59 59 60 61 60 59 60 64 64 64 64 58 56 60 62 66 67 66 64 63 70 76 75 76 71 66 70 71 73 73 74 78 79 82 86 86 87 87 90 94 92 91 93 93 93 91 90 89 86 83 82 82 83 84 84 83 83 83 83 82 80 79 78 76 74 72 70 68 67 67 67 66 64 63 61 59 57 57 55 54 54 53 52 51 50 48 46 44 41 38 36 33 31 29 27 26 25
58 60 59 62 64 64 66 67 68 70 65 57 57 54 55 64 67 66 64 63 69 69 62 67 71 71 70 66 68 71 75 78 78 84 88 86 88 89 89 93 95 93 92 92 92 91 90 89 86 84 83 83 84 85 84 83 82 81 79 78 76 76 74 73 71 69 68 66 65 66 67 65 62 60 58 56 55 54 54 53 52 51 49 46 42 39 37 35 32 30 29 28 27 26 25 24 23
57 59 61 65 65 67 70 70 71 74 67 57 56 53 51 58 64 67 67 62 67 71 64 61 66 74 73 66 67 74 81 80 75 83 92 89 87 89 88 88 90 90 91 90 89 88 88 87 85 86 85 83 83 82 81 79 78 76 75 75 74 73 71 70 68 67 66 64 63 64 65 64 60 57 56 54 52 51 50 48 46 44 41 37 33 29 27 25 24 24 24 24 25 25 24 23 22
56 57 61 65 65 67 69 70 73 72 68 62 56 52 51 53 58 64 66 61 62 70 73 67 66 76 81 75 71 75 85 85 76 78 88 92 90 88 86 85 86 87 88 87 86 85 85 83 82 82 81 80 78 77 75 74 74 72 71 69 68 67 65 65 64 64 64 63 63 62 62 60 56 53 50 47 44 41 38 36 34 33 31 29 27 24 23 22 22 22 22 23 24 24 24 23 22
54 56 60 62 63 65 66 69 72 72 74 71 61 53 52 54 56 59 60 60 60 65 76 77 72 79 89 89 81 77 85 91 86 81 82 86 88 86 84 84 86 86 87 85 84 83 82 81 79 78 77 76 75 74 73 71 71 69 67 64 60 58 58 58 58 59 60 59 58 56 54 51 49 45 41 37 34 30 29 27 27 26 25 24 24 23 22 22 22 23 23 24 24 24 24 23 22
55 57 62 61 60 64 66 70 74 77 79 78 71 58 52 54 56 58 58 60 62 65 75 80 78 83 90 95 93 88 90 94 94 92 89 86 87 88 87 86 85 85 86 84 83 82 81 79 78 77 75 74 74 73 72 70 69 67 65 62 57 54 53 53 53 52 50 48 47 45 43 40 38 34 31 29 27 26 25 25 25 24 23 23 22 22 23 22 23 24 25 25 25 24 23 22 21
57 60 63 62 62 64 67 72 74 79 81 81 79 66 55 53 54 58 60 60 65 68 73 76 80 87 90 95 98 96 96 97 97 96 95 93 92 92 90 88 85 85 85 84 83 82 79 78 77 76 75 73 73 72 70 69 67 65 63 58 53 50 47 46 44 42 39 37 36 34 32 31 29 27 27 26 25 25 25 25 24 23 23 22 22 22 22 22 22 22 22 23 22 21 20 19 18
56 61 65 65 67 67 68 76 79 81 83 83 83 73 61 56 55 61 62 60 64 69 73 76 78 82 86 91 95 96 95 96 97 96 94 94 94 92 90 88 86 86 85 83 83 81 79 76 76 75 73 71 71 70 68 68 66 62 57 50 46 43 40 38 35 33 31 30 29 28 28 28 27 27 26 26 25 24 24 23 22 22 22 21 21 21 20 20 19 18 18 18 17 16 16 15 15
53 60 66 70 70 70 69 77 84 84 86 89 85 72 62 59 60 65 67 65 69 76 79 81 81 79 79 83 88 93 95 95 96 96 95 94 93 92 90 87 86 85 84 83 81 80 78 74 73 72 70 68 67 66 64 63 60 54 47 42 39 37 36 34 32 30 30 28 28 28 28 27 26 26 25 24 23 22 21 21 20 20 19 19 18 18 17 17 16 15 15 14 14 14 13 13 12
50 56 65 71 71 71 70 75 81 83 88 90 80 68 61 63 66 72 78 76 77 82 83 82 83 83 81 80 81 86 89 91 92 94 94 93 92 90 88 86 84 82 80 79 76 75 74 72 70 69 67 65 63 62 60 56 48 42 38 37 36 34 33 32 31 30 29 28 27 27 26 25 24 23 22 22 21 21 20 20 19 19 18 18 17 16 16 15 14 14 13 13 13 12 12 12 12
51 52 60 69 73 74 72 75 79 83 89 88 78 72 71 72 74 80 84 82 81 84 83 81 80 81 81 80 79 80 81 82 83 86 88 88 88 86 84 82 80 77 75 73 70 69 68 68 67 66 64 63 61 58 54 48 41 38 38 37 35 34 32 31 29 29 27 27 26 25 24 24 23 23 22 22 21 21 20 19 19 18 17 16 16 15 14 14 13 13 12 12 12 12 12 12 12
56 54 56 63 72 76 73 74 77 82 87 88 86 86 85 84 84 86 86 83 83 83 81 80 77 76 77 78 79 80 80 79 79 80 80 81 81 79 78 76 74 72 70 68 67 66 65 65 64 63 62 61 58 53 47 42 40 39 37 36 34 32 31 29 28 27 26 26 25 25 25 24 24 23 22 21 21 20 19 19 18 17 16 15 14 13 13 12 12 12 12 12 13 13 13 13 14
57 56 56 58 66 73 73 72 73 76 80 83 87 88 86 85 83 85 86 84 84 83 81 81 80 80 80 80 82 83 83 82 80 78 76 75 73 72 71 69 67 64 63 64 65 65 64 63 62 60 58 55 49 43 39 38 37 36 35 33 31 30 29 28 27 27 26 26 25 25 24 23 23 21 20 20 19 18 18 17 17 16 15 14 14 13 13 13 14 15 15 16 17 17 17 17 17
55 55 57 58 62 67 70 70 70 72 73 75 79 79 79 80 78 79 83 84 84 83 82 84 84 83 82 81 81 81 82 82 81 80 77 74 70 68 66 63 61 59 58 59 61 62 62 62 60 57 52 46 40 36 36 36 36 34 32 31 29 28 27 27 26 26 25 24 24 23 22 21 20 20 19 19 18 18 18 18 17 17 17 17 17 17 18 19 20 20 21 21 21 20 19 18 17
52 54 56 58 61 65 68 70 72 71 71 73 73 73 72 73 74 75 78 80 81 80 80 80 81 80 79 78 78 77 77 78 80 80 78 76 73 70 68 65 63 62 60 59 60 60 59 56 51 46 41 37 35 35 35 35 34 32 30 29 27 27 26 26 25 24 24 23 22 21 20 19 19 19 19 19 20 20 20 21 21 21 22 23 23 23 23 23 23 23 23 21 19 18 16 15 14
50 52 54 56 59 61 61 65 70 70 70 70 70 71 69 69 71 71 73 75 74 74 73 74 73 73 73 74 74 75 74 75 76 76 76 74 73 71 69 67 65 64 62 60 57 54 50 45 40 37 35 34 34 34 34 34 34 32 29 27 26 26 25 25 24 24 22 21 20 19 18 18 18 19 20 21 22 23 24 25 25 26 27 27 27 26 25 24 23 21 19 17 15 13 12 11 10
48 51 52 54 56 54 52 57 62 64 66 67 71 72 69 69 72 72 73 72 69 68 67 67 66 65 65 66 69 70 71 71 72 73 73 72 70 68 66 65 63 60 57 53 48 44 41 39 38 37 35 35 35 35 35 34 34 32 29 27 25 25 25 24 23 22 21 20 19 18 18 19 21 22 24 25 26 27 28 28 29 29 28 28 27 25 24 21 19 17 14 13 11 10 9 8 8
45 48 49 51 52 49 47 52 54 55 58 60 65 68 65 65 70 72 73 72 69 67 66 65 63 61 60 62 65 68 69 70 70 72 72 70 68 66 64 61 57 52 48 44 41 40 39 39 38 37 36 36 36 35 34 34 33 31 28 26 24 24 23 23 22 21 20 20 20 21 22 24 26 28 29 30 30 30 31 31 30 29 28 26 24 22 19 17 14 12 10 9 8 8 8 7 8
45 44 48 49 48 48 46 47 48 47 49 51 53 54 52 52 56 60 63 63 63 63 63 64 63 61 59 59 62 65 68 70 70 70 70 68 66 64 61 55 49 45 42 40 38 37 37 37 37 36 35 35 34 33 33 32 32 30 28 26 24 24 24 24 24 24 24 25 27 28 29 30 31 32 32 32 32 31 31 30 29 27 25 23 21 18 15 13 11 9 9 8 8 8 8 8 8
49 46 47 48 45 46 46 45 44 43 44 45 44 44 41 39 40 43 45 47 48 49 51 54 55 56 55 54 55 58 61 64 65 64 64 63 61 58 53 47 43 40 37 35 34 33 33 33 33 32 32 32 32 32 31 31 32 31 29 27 27 27 29 30 30 31 31 32 32 32 33 33 33 32 32 32 31 30 29 28 26 24 22 19 17 14 12 10 9 9 8 8 8 8 8 8 8
48 47 47 47 45 44 44 43 43 41 42 41 40 40 38 36 36 36 37 38 38 38 40 43 45 46 47 46 46 47 50 52 53 54 54 54 52 50 45 41 37 35 32 31 31 30 30 31 31 31 31 31 32 32 33 33 33 34 33 32 33 33 34 35 35 35 35 34 34 34 34 33 32 31 30 30 29 28 27 25 23 21 19 16 14 12 11 10 9 9 9 9 9 9 9 10 10
44 46 47 47 47 46 44 43 42 41 41 39 38 38 37 37 38 38 39 39 38 37 38 38 39 40 41 41 42 43 45 46 47 48 49 49 47 45 41 38 35 32 31 31 31 31 32 33 34 35 35 35 35 36 37 38 39 40 40 39 38 38 37 37 37 37 36 36 35 34 33 31 29 28 28 28 27 26 25 23 21 19 17 14 12 11 10 9 9 10 10 10 10 11 11 11 11
43 45 47 48 48 49 46 45 45 45 44 41 40 39 38 39 40 42 43 43 42 42 42 42 41 41 42 43 45 48 50 50 50 51 51 51 50 48 45 41 38 36 35 35 36 37 39 40 41 41 41 41 42 42 43 43 44 44 43 42 40 40 40 40 39 39 38 37 35 33 31 29 28 28 28 27 26 26 24 22 19 17 15 12 11 10 10 10 11 11 11 11 12 12 12 13 13
45 47 48 49 50 50 49 47 47 49 48 45 45 44 42 42 43 45 47 47 46 46 46 47 47 46 45 47 49 52 55 56 57 56 56 56 54 52 49 46 44 44 43 44 45 46 47 47 46 46 45 45 45 46 45 45 45 46 46 45 44 44 43 42 41 40 39 37 35 33 31 30 30 30 29 28 27 25 23 20 17 14 12 12 11 11 12 12 12 13 13 13 14 14 14 15 15
48 49 49 51 51 50 50 50 48 49 50 48 48 49 47 47 47 49 51 52 51 51 50 50 50 49 48 49 51 54 56 58 58 58 56 55 52 49 48 47 48 48 47 47 48 48 48 48 48 47 47 48 48 48 48 49 49 49 49 49 47 46 44 43 42 40 39 38 36 34 33 33 33 32 31 29 26 23 20 17 14 13 12 12 12 13 13 13 14 14 15 15 16 16 16 16 16
49 49 50 50 50 48 49 52 51 51 53 52 53 55 52 51 50 51 54 56 56 57 56 55 55 54 53 53 54 55 57 59 59 58 57 55 53 51 50 50 49 49 49 49 49 49 50 51 51 51 52 52 52 51 51 51 50 50 50 50 48 47 45 44 43 41 39 39 38 37 36 36 35 34 30 27 22 19 16 14 13 13 13 13 14 15 15 15 15 16 16 17 17 18 18 18 18
48 49 49 49 49 49 51 53 53 54 55 55 57 58 53 50 51 51 53 56 58 60 61 61 60 60 59 59 59 58 58 59 59 59 59 58 56 55 54 54 53 53 53 53 53 54 54 55 55 55 54 54 53 52 52 51 51 50 49 49 48 47 46 45 44 42 41 40 40 39 39 39 36 32 27 22 18 15 14 14 14 14 15 15 15 16 16 17 17 17 17 17 17 19 20 20 20
50 51 51 51 52 54 55 55 56 58 57 55 58 59 51 47 49 50 51 54 57 59 59 59 60 61 62 62 61 60 60 59 58 58 57 57 56 56 55 55 55 55 56 56 56 57 57 57 56 56 55 54 53 52 52 51 50 50 50 49 49 48 47 46 45 44 43 43 43 43 43 39 33 26 21 18 15 15 15 15 16 16 17 17 17 18 18 18 17 17 17 16 17 17 19 21 21
54 54 54 55 55 56 57 57 60 60 57 58 61 60 55 50 50 50 51 54 55 55 56 56 57 60 61 61 61 62 61 59 58 57 56 55 54 54 54 54 55 55 55 56 57 58 58 57 56 55 53 52 52 51 51 51 50 50 50 49 49 49 48 47 46 46 46 46 47 45 40 32 25 21 18 17 17 17 17 17 18 18 18 19 19 19 18 18 17 17 16 15 15 15 16 18 18
57 56 56 56 57 58 58 60 62 60 59 61 61 61 60 54 52 52 53 55 54 53 53 54 56 58 59 60 61 62 61 60 59 57 56 56 55 54 54 54 55 55 56 56 57 57 56 55 54 53 52 51 51 51 51 51 51 51 51 51 50 50 50 49 49 49 50 50 46 39 31 24 21 19 18 18 18 19 19 19 19 20 20 20 20 19 18 18 16 16 15 14 13 13 13 13 14
58 59 58 58 58 59 60 61 61 59 60 60 57 60 62 53 50 53 53 53 52 50 49 51 53 55 57 58 59 61 60 59 58 57 56 55 55 54 54 54 55 55 55 56 56 56 55 54 53 52 52 51 52 53 53 53 53 53 53 53 53 53 52 52 52 52 50 45 37 29 24 21 20 19 20 20 20 21 21 21 22 22 21 21 20 19 18 16 15 15 14 13 12 11 11 11 11
60 61 60 60 60 59 60 60 60 60 60 58 55 58 60 51 45 49 51 50 49 47 47 48 50 52 54 55 57 59 58 58 57 56 56 55 54 54 54 54 55 54 55 55 55 55 55 55 54 54 53 53 54 55 55 55 55 56 56 56 55 55 53 52 52 49 42 33 27 24 23 21 21 21 22 22 23 23 23 23 23 23 21 20 19 17 16 15 14 14 13 12 12 11 11 10 10
63 62 60 61 60 59 60 59 60 63 59 54 53 55 58 52 43 43 47 48 47 46 46 48 50 52 53 55 57 59 59 58 58 58 57 57 57 57 56 57 57 57 57 57 58 57 57 57 57 56 56 56 57 58 58 58 59 59 59 57 56 54 52 51 47 39 31 27 25 24 23 23 23 24 24 25 25 25 25 24 22 21 20 18 17 16 15 14 13 13 12 11 11 10 10 9 9
64 63 62 64 61 58 60 60 62 64 56 51 51 53 56 53 44 41 44 46 47 48 47 47 50 53 54 56 58 59 60 59 59 59 60 60 61 61 61 61 61 61 61 62 63 62 62 61 61 60 59 60 61 61 62 62 62 61 59 57 55 53 50 45 38 31 28 27 26 25 25 25 26 26 27 27 26 25 24 23 21 20 18 17 16 15 14 13 12 11 11 10 10 9 9 9 9
64 64 66 69 65 63 63 61 61 61 55 53 53 54 55 51 43 43 44 45 48 49 49 48 50 53 54 56 58 59 59 59 58 58 58 59 60 60 61 62 63 63 65 66 67 67 67 66 65 64 64 64 65 65 65 64 63 61 59 56 53 50 43 36 31 29 28 28 27 27 28 28 28 28 28 26 25 24 23 21 20 18 17 16 15 14 13 12 11 10 9 9 8 8 8 8 8
65 66 70 70 68 71 70 62 60 59 54 53 54 57 56 47 43 45 45 47 50 51 52 51 50 52 54 56 58 58 58 58 57 56 56 56 57 58 59 59 61 62 64 66 68 69 70 69 69 68 68 68 67 67 66 64 62 59 55 51 47 40 35 31 31 31 30 30 30 30 30 29 29 28 27 26 24 23 21 20 18 17 16 15 14 12 12 10 9 9 8 8 7 7 7 7 7
68 67 71 71 68 72 70 61 60 60 56 54 56 57 52 44 45 48 48 49 52 53 54 53 53 54 56 58 59 60 60 59 58 57 57 56 56 57 57 59 60 61 64 66 68 70 71 71 71 70 70 68 67 65 63 59 55 51 47 43 38 34 33 33 33 33 33 33 32 31 30 29 28 27 26 24 23 21 19 18 17 15 14 13 12 11 10 9 8 8 8 7 7 7 6 7 7
70 68 72 74 70 70 70 66 63 65 64 60 57 55 47 46 50 51 51 52 54 56 56 55 56 57 58 60 61 62 63 61 61 60 59 58 57 57 57 58 60 62 65 67 69 70 71 71 71 70 69 66 63 59 54 51 48 46 43 39 36 36 36 36 36 35 34 33 31 30 29 28 27 26 24 22 21 19 18 16 15 14 13 12 10 9 9 8 7 7 7 6 6 7 7 8 8
69 70 74 75 72 72 76 75 68 70 73 62 55 54 49 49 51 51 53 55 55 57 57 56 58 59 61 62 62 63 63 63 62 60 59 58 58 57 58 58 59 61 63 64 65 67 67 67 67 65 62 59 55 52 50 49 48 45 42 40 39 39 39 38 37 35 33 31 30 29 28 27 25 24 22 20 19 17 16 15 14 13 12 10 9 9 8 7 7 7 7 7 7 8 9 9 9
68 71 72 72 74 74 78 81 76 76 77 64 54 55 53 50 49 49 53 55 55 58 59 59 60 62 62 61 61 62 61 61 60 59 59 59 57 57 57 57 57 57 58 59 60 60 60 60 59 58 56 55 53 52 52 51 48 45 43 42 42 41 39 37 35 33 32 30 29 28 26 25 23 22 20 19 18 17 15 14 13 12 10 9 9 8 8 7 7 7 7 8 9 9 10 10 11
65 67 66 68 75 77 80 86 85 82 81 68 55 52 51 48 46 48 50 52 54 57 59 60 61 61 61 60 60 60 60 60 59 57 56 54 52 51 50 51 52 54 55 56 57 57 57 57 56 56 56 56 56 55 54 52 48 45 45 43 41 39 37 36 34 32 30 28 27 26 24 23 22 21 19 18 17 15 15 14 12 11 9 9 8 8 7 7 7 8 8 9 10 10 11 12 13
62 63 64 66 73 77 79 82 81 81 82 74 62 52 43 40 40 43 46 48 52 56 58 58 59 59 60 62 62 61 60 59 56 54 51 47 45 43 43 45 48 50 52 53 55 56 57 58 58 58 59 58 58 57 54 51 48 46 44 41 39 38 36 35 32 30 28 27 25 24 23 22 21 20 18 17 16 15 14 13 11 10 9 8 8 7 7 7 8 9 9 10 11 12 13 13 14
62 63 64 68 73 78 81 79 75 78 82 76 71 60 42 36 39 41 45 48 50 54 56 57 60 62 63 63 62 60 60 59 57 55 52 48 44 42 41 43 46 48 50 52 54 57 58 59 59 60 60 59 58 55 52 50 47 44 41 39 38 36 35 33 30 28 27 26 24 23 22 22 20 19 18 16 15 14 13 12 10 9 8 8 8 7 7 8 9 10 11 12 13 14 14 15 15
61 61 62 66 72 78 86 85 76 78 82 76 75 67 45 38 44 44 47 51 51 54 57 59 63 65 65 64 63 61 61 61 61 60 57 52 47 44 43 44 45 48 50 53 55 57 58 59 60 60 60 58 56 54 52 49 45 41 39 38 37 35 33 31 28 27 26 25 24 23 22 21 19 18 17 15 14 13 12 11 10 9 8 8 8 8 8 9 10 11 12 13 15 15 16 17 17